| time (UTC) | temp C | wind direction | speed KPH | gust KPH | rain 1hr cm | rain 24hr cm | rain mn cm | humidity % | barometer mb |
| 20260507164327 | 21 | 114 | 0.0 | 4.8 | 0.00 | 0.00 | 0.00 | 84 | 1016.3 |
| 20260507163829 | 21 | 133 | 0.0 | 3.2 | 0.00 | 0.00 | 0.00 | 84 | 1016.3 |
| 20260507163326 | 21 | 58 | 0.0 | 4.8 | 0.00 | 0.00 | 0.00 | 84 | 1016.1 |
| 20260507162829 | 21 | 357 | 1.6 | 4.8 | 0.00 | 0.00 | 0.00 | 84 | 1016.0 |
| 20260507162326 | 21 | 66 | 0.0 | 3.2 | 0.00 | 0.00 | 0.00 | 84 | 1016.1 |
| 20260507161327 | 21 | 0 | 0.0 | 3.2 | 0.00 | 0.00 | 0.00 | 84 | 1015.9 |
| 20260507160829 | 21 | 73 | 0.0 | 4.8 | 0.00 | 0.00 | 0.00 | 84 | 1015.7 |
| 20260507160326 | 21 | 69 | 0.0 | 4.8 | 0.00 | 0.00 | 0.00 | 85 | 1015.7 |
| 20260507155830 | 21 | 8 | 0.0 | 3.2 | 0.00 | 0.00 | 0.00 | 85 | 1015.7 |
| 20260507155326 | 21 | 94 | 0.0 | 1.6 | 0.00 | 0.00 | 0.00 | 85 | 1015.6 |
| 20260507154827 | 21 | 82 | 0.0 | 3.2 | 0.00 | 0.00 | 0.00 | 85 | 1015.5 |
| 20260507154326 | 21 | 38 | 0.0 | 3.2 | 0.00 | 0.00 | 0.00 | 85 | 1015.5 |
| 20260507153828 | 21 | 30 | 0.0 | 1.6 | 0.00 | 0.00 | 0.00 | 85 | 1015.5 |
| 20260507153326 | 21 | 49 | 0.0 | 3.2 | 0.00 | 0.00 | 0.00 | 85 | 1015.4 |
| 20260507152829 | 21 | 52 | 0.0 | 3.2 | 0.00 | 0.00 | 0.00 | 85 | 1015.3 |
| 20260507152325 | 21 | 48 | 0.0 | 1.6 | 0.00 | 0.00 | 0.00 | 85 | 1015.1 |
| 20260507151828 | 21 | 0 | 0.0 | 4.8 | 0.00 | 0.00 | 0.00 | 85 | 1015.1 |
| 20260507151326 | 21 | 51 | 1.6 | 4.8 | 0.00 | 0.00 | 0.00 | 84 | 1015.0 |
| 20260507150828 | 21 | 61 | 0.0 | 3.2 | 0.00 | 0.00 | 0.00 | 84 | 1015.0 |
| 20260507150326 | 21 | 72 | 0.0 | 1.6 | 0.00 | 0.00 | 0.00 | 84 | 1014.8 |
| 20260507145827 | 21 | 62 | 0.0 | 1.6 | 0.00 | 0.00 | 0.00 | 84 | 1014.9 |
| 20260507145327 | 21 | 56 | 0.0 | 1.6 | 0.00 | 0.00 | 0.00 | 83 | 1014.8 |
| 20260507144826 | 21 | 51 | 0.0 | 3.2 | 0.00 | 0.00 | 0.00 | 83 | 1014.7 |
| 20260507144325 | 21 | 49 | 0.0 | 3.2 | 0.00 | 0.00 | 0.00 | 83 | 1014.7 |
| 20260507143825 | 21 | 54 | 0.0 | 1.6 | 0.00 | 0.00 | 0.00 | 83 | 1014.7 |
| 20260507143325 | 21 | 121 | 0.0 | 1.6 | 0.00 | 0.00 | 0.00 | 84 | 1014.7 |
| 20260507142324 | 21 | 121 | 0.0 | 1.6 | 0.00 | 0.00 | 0.00 | 84 | 1014.7 |
| 20260507141826 | 21 | 72 | 0.0 | 0.0 | 0.00 | 0.00 | 0.00 | 84 | 1014.8 |
| 20260507140826 | 21 | 62 | 0.0 | 1.6 | 0.00 | 0.00 | 0.00 | 84 | 1014.8 |
| 20260507140325 | 21 | 59 | 0.0 | 3.2 | 0.00 | 0.00 | 0.00 | 84 | 1014.8 |
| 20260507135826 | 21 | 59 | 0.0 | 3.2 | 0.00 | 0.00 | 0.00 | 84 | 1014.9 |
| 20260507135325 | 21 | 52 | 0.0 | 3.2 | 0.00 | 0.00 | 0.00 | 84 | 1014.9 |
| 20260507134827 | 21 | 51 | 0.0 | 3.2 | 0.00 | 0.00 | 0.00 | 84 | 1015.0 |
| 20260507134324 | 21 | 59 | 0.0 | 1.6 | 0.00 | 0.00 | 0.00 | 84 | 1015.0 |
| 20260507133828 | 21 | 59 | 0.0 | 1.6 | 0.00 | 0.00 | 0.00 | 84 | 1014.9 |
| 20260507133323 | 21 | 58 | 0.0 | 1.6 | 0.00 | 0.00 | 0.00 | 84 | 1014.9 |
| 20260507132825 | 21 | 58 | 0.0 | 1.6 | 0.00 | 0.00 | 0.00 | 84 | 1014.9 |
| 20260507132324 | 21 | 58 | 0.0 | 1.6 | 0.00 | 0.00 | 0.00 | 84 | 1015.0 |
| 20260507131826 | 21 | 59 | 0.0 | 1.6 | 0.00 | 0.00 | 0.00 | 84 | 1015.0 |
| 20260507131324 | 21 | 59 | 0.0 | 1.6 | 0.00 | 0.00 | 0.00 | 84 | 1015.0 |
| 20260507130325 | 21 | 28 | 0.0 | 3.2 | 0.00 | 0.00 | 0.00 | 84 | 1015.1 |
| 20260507125826 | 21 | 31 | 0.0 | 4.8 | 0.00 | 0.00 | 0.00 | 84 | 1015.1 |
| 20260507125325 | 21 | 89 | 0.0 | 4.8 | 0.00 | 0.00 | 0.00 | 84 | 1015.3 |
| 20260507124826 | 21 | 71 | 0.0 | 3.2 | 0.00 | 0.00 | 0.00 | 84 | 1015.4 |
| 20260507124322 | 21 | 30 | 0.0 | 3.2 | 0.00 | 0.00 | 0.00 | 84 | 1015.4 |
| 20260507123323 | 21 | 51 | 0.0 | 3.2 | 0.00 | 0.00 | 0.00 | 84 | 1015.5 |
| 20260507122825 | 21 | 39 | 0.0 | 3.2 | 0.00 | 0.00 | 0.00 | 83 | 1015.6 |
| 20260507122323 | 21 | 30 | 0.0 | 6.4 | 0.00 | 0.00 | 0.00 | 83 | 1015.6 |
| 20260507121825 | 21 | 21 | 1.6 | 6.4 | 0.00 | 0.00 | 0.00 | 83 | 1015.6 |
| 20260507121323 | 21 | 0 | 0.0 | 3.2 | 0.00 | 0.00 | 0.00 | 83 | 1015.6 |
| 20260507120824 | 21 | 340 | 0.0 | 4.8 | 0.00 | 0.00 | 0.00 | 83 | 1015.6 |
| 20260507115823 | 21 | 97 | 0.0 | 4.8 | 0.00 | 0.00 | 0.00 | 83 | 1015.6 |
| 20260507115323 | 21 | 17 | 1.6 | 4.8 | 0.00 | 0.00 | 0.00 | 83 | 1015.7 |
| 20260507114823 | 21 | 65 | 0.0 | 3.2 | 0.00 | 0.00 | 0.00 | 83 | 1015.8 |
| 20260507114321 | 21 | 25 | 0.0 | 3.2 | 0.00 | 0.00 | 0.00 | 83 | 1015.9 |
| 20260507113822 | 21 | 86 | 1.6 | 3.2 | 0.00 | 0.00 | 0.00 | 83 | 1015.9 |
| 20260507113321 | 21 | 99 | 0.0 | 6.4 | 0.00 | 0.00 | 0.00 | 83 | 1015.9 |
| 20260507112822 | 21 | 324 | 0.0 | 6.4 | 0.00 | 0.00 | 0.00 | 83 | 1015.9 |
| 20260507112320 | 21 | 32 | 0.0 | 3.2 | 0.00 | 0.00 | 0.00 | 83 | 1015.9 |
| 20260507111825 | 21 | 52 | 0.0 | 4.8 | 0.00 | 0.00 | 0.00 | 83 | 1016.0 |
| 20260507111320 | 21 | 41 | 1.6 | 6.4 | 0.00 | 0.00 | 0.00 | 83 | 1016.0 |
| 20260507110321 | 21 | 21 | 1.6 | 8.0 | 0.00 | 0.00 | 0.00 | 83 | 1016.0 |
| 20260507105822 | 21 | 0 | 1.6 | 8.0 | 0.00 | 0.00 | 0.00 | 83 | 1016.1 |
| 20260507105321 | 21 | 32 | 1.6 | 8.0 | 0.00 | 0.00 | 0.00 | 83 | 1016.1 |
| 20260507104824 | 21 | 124 | 1.6 | 8.0 | 0.00 | 0.00 | 0.00 | 83 | 1016.2 |
| 20260507104322 | 21 | 166 | 1.6 | 4.8 | 0.00 | 0.00 | 0.00 | 83 | 1016.2 |
| 20260507103822 | 21 | 87 | 0.0 | 4.8 | 0.00 | 0.00 | 0.00 | 83 | 1016.3 |
| 20260507103321 | 21 | 65 | 0.0 | 4.8 | 0.00 | 0.00 | 0.00 | 83 | 1016.3 |
| 20260507102319 | 21 | 42 | 1.6 | 6.4 | 0.00 | 0.00 | 0.00 | 82 | 1016.4 |
| 20260507101821 | 21 | 80 | 1.6 | 4.8 | 0.00 | 0.00 | 0.00 | 81 | 1016.4 |
| 20260507101319 | 21 | 99 | 0.0 | 4.8 | 0.00 | 0.00 | 0.00 | 82 | 1016.5 |
| 20260507100821 | 21 | 100 | 0.0 | 4.8 | 0.00 | 0.00 | 0.00 | 81 | 1016.5 |
| 20260507100321 | 21 | 35 | 1.6 | 4.8 | 0.00 | 0.00 | 0.00 | 82 | 1016.5 |
| 20260507095822 | 22 | 66 | 1.6 | 4.8 | 0.00 | 0.00 | 0.00 | 82 | 1016.5 |
| 20260507095319 | 22 | 99 | 1.6 | 6.4 | 0.00 | 0.00 | 0.00 | 81 | 1016.4 |
| 20260507094821 | 22 | 220 | 1.6 | 6.4 | 0.00 | 0.00 | 0.00 | 80 | 1016.5 |
| 20260507094320 | 22 | 106 | 0.0 | 6.4 | 0.00 | 0.00 | 0.00 | 80 | 1016.5 |
| 20260507093318 | 22 | 62 | 1.6 | 9.7 | 0.00 | 0.00 | 0.00 | 81 | 1016.6 |
| 20260507092821 | 22 | 27 | 1.6 | 9.7 | 0.00 | 0.00 | 0.00 | 81 | 1016.7 |
| 20260507092320 | 22 | 80 | 1.6 | 6.4 | 0.00 | 0.00 | 0.00 | 81 | 1016.8 |
| 20260507091821 | 22 | 125 | 1.6 | 6.4 | 0.00 | 0.00 | 0.00 | 81 | 1016.8 |
| 20260507091318 | 22 | 66 | 1.6 | 6.4 | 0.00 | 0.00 | 0.00 | 80 | 1016.8 |
| 20260507090820 | 22 | 35 | 0.0 | 6.4 | 0.00 | 0.00 | 0.00 | 80 | 1016.8 |
| 20260507090319 | 22 | 138 | 1.6 | 6.4 | 0.00 | 0.00 | 0.00 | 80 | 1016.8 |
| 20260507085820 | 22 | 102 | 0.0 | 6.4 | 0.00 | 0.00 | 0.00 | 80 | 1016.9 |
| 20260507085319 | 22 | 142 | 1.6 | 4.8 | 0.00 | 0.00 | 0.00 | 80 | 1016.9 |
| 20260507084819 | 22 | 109 | 0.0 | 4.8 | 0.00 | 0.00 | 0.00 | 81 | 1016.8 |
| 20260507084317 | 21 | 87 | 1.6 | 4.8 | 0.00 | 0.00 | 0.00 | 81 | 1016.9 |
| 20260507083317 | 21 | 21 | 3.2 | 8.0 | 0.00 | 0.00 | 0.00 | 82 | 1016.8 |
| 20260507082818 | 21 | 116 | 1.6 | 9.7 | 0.00 | 0.00 | 0.00 | 82 | 1016.8 |
| 20260507082317 | 21 | 44 | 1.6 | 9.7 | 0.00 | 0.00 | 0.00 | 82 | 1016.8 |
| 20260507081819 | 21 | 0 | 0.0 | 6.4 | 0.00 | 0.00 | 0.00 | 82 | 1016.8 |
| 20260507081318 | 21 | 62 | 1.6 | 6.4 | 0.00 | 0.00 | 0.00 | 83 | 1016.7 |
| 20260507080819 | 21 | 111 | 1.6 | 6.4 | 0.00 | 0.00 | 0.00 | 83 | 1016.7 |
| 20260507080316 | 21 | 48 | 0.0 | 6.4 | 0.00 | 0.00 | 0.00 | 83 | 1016.8 |
| 20260507075818 | 21 | 47 | 1.6 | 4.8 | 0.00 | 0.00 | 0.00 | 83 | 1016.7 |
| 20260507075317 | 21 | 140 | 1.6 | 8.0 | 0.00 | 0.00 | 0.00 | 83 | 1016.8 |
| 20260507074819 | 21 | 45 | 1.6 | 8.0 | 0.00 | 0.00 | 0.00 | 83 | 1016.7 |
| 20260507074316 | 21 | 86 | 0.0 | 8.0 | 0.00 | 0.00 | 0.00 | 84 | 1016.7 |
| 20260507073819 | 21 | 35 | 1.6 | 8.0 | 0.00 | 0.00 | 0.00 | 84 | 1016.6 |
| 20260507072818 | 22 | 90 | 1.6 | 11.3 | 0.00 | 0.00 | 0.00 | 85 | 1016.6 |
| 20260507072316 | 21 | 37 | 1.6 | 11.3 | 0.00 | 0.00 | 0.00 | 85 | 1016.5 |
| 20260507071315 | 22 | 28 | 1.6 | 6.4 | 0.00 | 0.00 | 0.00 | 85 | 1016.3 |
| 20260507070818 | 22 | 8 | 0.0 | 14.5 | 0.00 | 0.00 | 0.00 | 84 | 1016.3 |
| 20260507070315 | 22 | 227 | 1.6 | 14.5 | 0.00 | 0.00 | 0.00 | 84 | 1016.1 |
| 20260507065818 | 22 | 45 | 1.6 | 6.4 | 0.00 | 0.00 | 0.00 | 84 | 1016.1 |
| 20260507065315 | 22 | 128 | 1.6 | 4.8 | 0.00 | 0.00 | 0.00 | 84 | 1016.0 |
| 20260507064818 | 22 | 66 | 1.6 | 9.7 | 0.00 | 0.00 | 0.00 | 84 | 1016.1 |
| 20260507063818 | 22 | 113 | 1.6 | 8.0 | 0.00 | 0.00 | 0.00 | 85 | 1015.9 |
| 20260507063314 | 22 | 92 | 1.6 | 9.7 | 0.00 | 0.00 | 0.00 | 85 | 1015.9 |
| 20260507062315 | 22 | 73 | 3.2 | 9.7 | 0.00 | 0.00 | 0.00 | 85 | 1015.9 |
| 20260507061819 | 22 | 99 | 1.6 | 8.0 | 0.00 | 0.00 | 0.00 | 85 | 1015.7 |
| 20260507061314 | 22 | 62 | 3.2 | 8.0 | 0.00 | 0.00 | 0.00 | 85 | 1015.8 |
| 20260507060816 | 22 | 117 | 1.6 | 6.4 | 0.00 | 0.00 | 0.00 | 85 | 1015.6 |
| 20260507060314 | 22 | 172 | 3.2 | 6.4 | 0.00 | 0.00 | 0.00 | 85 | 1015.5 |
| 20260507055313 | 22 | 123 | 3.2 | 6.4 | 0.00 | 0.00 | 0.00 | 85 | 1015.4 |
| 20260507054815 | 22 | 3 | 1.6 | 6.4 | 0.00 | 0.00 | 0.00 | 84 | 1015.3 |
| 20260507054314 | 22 | 56 | 1.6 | 8.0 | 0.00 | 0.00 | 0.00 | 85 | 1015.3 |
| 20260507053816 | 22 | 138 | 3.2 | 11.3 | 0.00 | 0.00 | 0.00 | 84 | 1015.3 |
| 20260507053313 | 22 | 34 | 3.2 | 11.3 | 0.00 | 0.00 | 0.00 | 84 | 1015.1 |
| 20260507052815 | 22 | 152 | 0.0 | 8.0 | 0.00 | 0.00 | 0.00 | 85 | 1015.0 |
| 20260507052314 | 22 | 0 | 1.6 | 9.7 | 0.00 | 0.00 | 0.00 | 84 | 1015.0 |
| 20260507051814 | 22 | 78 | 3.2 | 9.7 | 0.00 | 0.00 | 0.00 | 84 | 1015.0 |
| 20260507051313 | 22 | 137 | 1.6 | 11.3 | 0.00 | 0.00 | 0.00 | 84 | 1014.9 |
| 20260507050816 | 22 | 0 | 1.6 | 11.3 | 0.00 | 0.00 | 0.00 | 85 | 1014.8 |
| 20260507050312 | 22 | 4 | 1.6 | 8.0 | 0.00 | 0.00 | 0.00 | 85 | 1014.8 |
| 20260507045814 | 22 | 38 | 1.6 | 8.0 | 0.00 | 0.00 | 0.00 | 85 | 1014.8 |
| 20260507045313 | 22 | 59 | 1.6 | 8.0 | 0.00 | 0.00 | 0.00 | 85 | 1014.7 |
| 20260507044814 | 22 | 0 | 3.2 | 8.0 | 0.00 | 0.00 | 0.00 | 85 | 1014.7 |
| 20260507044312 | 22 | 56 | 3.2 | 8.0 | 0.00 | 0.00 | 0.00 | 85 | 1014.6 |
| 20260507043312 | 22 | 69 | 3.2 | 9.7 | 0.00 | 0.00 | 0.00 | 85 | 1014.6 |
| 20260507042811 | 22 | 79 | 4.8 | 9.7 | 0.00 | 0.00 | 0.00 | 85 | 1014.4 |
| 20260507042313 | 22 | 116 | 4.8 | 9.7 | 0.00 | 0.00 | 0.00 | 85 | 1014.4 |
| 20260507041814 | 22 | 97 | 3.2 | 11.3 | 0.00 | 0.00 | 0.00 | 85 | 1014.4 |
| 20260507041311 | 22 | 55 | 1.6 | 11.3 | 0.00 | 0.00 | 0.00 | 85 | 1014.4 |
| 20260507040311 | 22 | 289 | 1.6 | 9.7 | 0.00 | 0.00 | 0.00 | 85 | 1014.2 |
| 20260507035813 | 22 | 188 | 1.6 | 8.0 | 0.00 | 0.00 | 0.00 | 85 | 1014.3 |
| 20260507035311 | 22 | 130 | 1.6 | 8.0 | 0.00 | 0.00 | 0.00 | 85 | 1014.2 |
| 20260507034813 | 22 | 73 | 1.6 | 8.0 | 0.00 | 0.00 | 0.00 | 85 | 1014.2 |
| 20260507034313 | 22 | 248 | 3.2 | 8.0 | 0.00 | 0.00 | 0.00 | 85 | 1014.1 |
| 20260507033812 | 22 | 138 | 1.6 | 8.0 | 0.00 | 0.00 | 0.00 | 85 | 1013.9 |
| 20260507032813 | 22 | 66 | 1.6 | 11.3 | 0.00 | 0.00 | 0.00 | 84 | 1014.0 |
| 20260507032312 | 22 | 169 | 1.6 | 17.7 | 0.00 | 0.00 | 0.00 | 84 | 1013.9 |
| 20260507031311 | 22 | 137 | 1.6 | 14.5 | 0.00 | 0.00 | 0.00 | 84 | 1013.9 |
| 20260507030812 | 22 | 28 | 3.2 | 8.0 | 0.00 | 0.00 | 0.00 | 83 | 1013.8 |
| 20260507030310 | 23 | 80 | 3.2 | 11.3 | 0.00 | 0.00 | 0.00 | 83 | 1013.7 |
| 20260507025813 | 23 | 149 | 3.2 | 11.3 | 0.00 | 0.00 | 0.00 | 83 | 1013.7 |
| 20260507024813 | 23 | 0 | 3.2 | 11.3 | 0.00 | 0.00 | 0.00 | 84 | 1013.6 |
| 20260507024309 | 23 | 72 | 1.6 | 9.7 | 0.00 | 0.00 | 0.00 | 84 | 1013.7 |
| 20260507023810 | 23 | 0 | 3.2 | 9.7 | 0.00 | 0.00 | 0.00 | 84 | 1013.8 |
| 20260507023309 | 23 | 30 | 1.6 | 6.4 | 0.00 | 0.00 | 0.00 | 84 | 1013.7 |
| 20260507022811 | 23 | 58 | 3.2 | 6.4 | 0.00 | 0.00 | 0.00 | 83 | 1013.7 |
| 20260507022310 | 23 | 69 | 3.2 | 8.0 | 0.00 | 0.00 | 0.00 | 83 | 1013.9 |
| 20260507021810 | 23 | 140 | 3.2 | 8.0 | 0.00 | 0.00 | 0.00 | 83 | 1013.7 |
| 20260507020835 | 23 | 20 | 1.6 | 9.7 | 0.00 | 0.00 | 0.00 | 82 | 1013.8 |
| 20260507015308 | 24 | 63 | 1.6 | 9.7 | 0.00 | 0.00 | 0.00 | 80 | 1013.9 |
| 20260507014810 | 24 | 69 | 3.2 | 9.7 | 0.00 | 0.00 | 0.00 | 79 | 1013.9 |
| 20260507014308 | 25 | 149 | 1.6 | 9.7 | 0.00 | 0.00 | 0.00 | 78 | 1013.9 |
| 20260507013809 | 25 | 168 | 1.6 | 9.7 | 0.00 | 0.00 | 0.00 | 77 | 1013.9 |
| 20260507013309 | 25 | 333 | 1.6 | 8.0 | 0.00 | 0.00 | 0.00 | 78 | 1013.8 |
| 20260507012813 | 25 | 182 | 1.6 | 4.8 | 0.00 | 0.00 | 0.00 | 78 | 1013.7 |
| 20260507012308 | 25 | 338 | 1.6 | 4.8 | 0.00 | 0.00 | 0.00 | 78 | 1013.8 |
| 20260507011811 | 25 | 228 | 0.0 | 4.8 | 0.00 | 0.00 | 0.00 | 77 | 1013.8 |
| 20260507011307 | 25 | 213 | 1.6 | 4.8 | 0.00 | 0.00 | 0.00 | 77 | 1013.7 |
| 20260507010810 | 25 | 314 | 0.0 | 11.3 | 0.00 | 0.00 | 0.00 | 78 | 1013.9 |
| 20260507010307 | 25 | 0 | 3.2 | 11.3 | 0.00 | 0.00 | 0.00 | 77 | 1013.9 |
| 20260507005809 | 25 | 220 | 1.6 | 6.4 | 0.00 | 0.00 | 0.00 | 79 | 1013.9 |
| 20260507005309 | 25 | 303 | 0.0 | 4.8 | 0.00 | 0.00 | 0.00 | 79 | 1013.9 |
| 20260507004809 | 25 | 82 | 0.0 | 4.8 | 0.00 | 0.00 | 0.00 | 79 | 1014.1 |
| 20260507003809 | 25 | 343 | 1.6 | 4.8 | 0.00 | 0.00 | 0.00 | 79 | 1014.2 |
| 20260507002808 | 25 | 175 | 0.0 | 4.8 | 0.00 | 0.00 | 0.00 | 79 | 1014.3 |
| 20260507002307 | 25 | 228 | 1.6 | 8.0 | 0.00 | 0.00 | 0.00 | 80 | 1014.4 |
| 20260507001810 | 25 | 148 | 1.6 | 8.0 | 0.00 | 0.00 | 0.00 | 79 | 1014.3 |
| 20260507001305 | 25 | 61 | 0.0 | 4.8 | 0.00 | 0.00 | 0.00 | 79 | 1014.4 |
| 20260507000807 | 25 | 20 | 1.6 | 8.0 | 0.00 | 0.00 | 0.00 | 79 | 1014.5 |
| 20260507000306 | 25 | 1 | 1.6 | 8.0 | 0.00 | 0.00 | 0.00 | 78 | 1014.5 |
| 20260506235307 | 25 | 204 | 1.6 | 8.0 | 0.00 | 0.00 | 0.00 | 77 | 1014.6 |
| 20260506234807 | 25 | 275 | 0.0 | 8.0 | 0.00 | 0.00 | 0.00 | 77 | 1014.6 |
| 20260506234306 | 25 | 321 | 1.6 | 3.2 | 0.00 | 0.00 | 0.00 | 78 | 1014.6 |
| 20260506233808 | 25 | 66 | 1.6 | 8.0 | 0.00 | 0.00 | 0.00 | 78 | 1014.7 |
| 20260506233305 | 25 | 357 | 3.2 | 8.0 | 0.00 | 0.00 | 0.00 | 76 | 1014.8 |
| 20260506232308 | 26 | 214 | 1.6 | 9.7 | 0.00 | 0.00 | 0.00 | 76 | 1014.7 |
| 20260506231807 | 26 | 125 | 1.6 | 6.4 | 0.00 | 0.00 | 0.00 | 76 | 1014.7 |
| 20260506231306 | 26 | 113 | 1.6 | 6.4 | 0.00 | 0.00 | 0.00 | 75 | 1014.8 |
| 20260506230807 | 26 | 125 | 1.6 | 9.7 | 0.00 | 0.00 | 0.00 | 75 | 1014.8 |
| 20260506230306 | 26 | 310 | 1.6 | 9.7 | 0.00 | 0.00 | 0.00 | 74 | 1014.9 |
| 20260506225806 | 26 | 142 | 1.6 | 8.0 | 0.00 | 0.00 | 0.00 | 74 | 1014.7 |
| 20260506225306 | 27 | 0 | 3.2 | 6.4 | 0.00 | 0.00 | 0.00 | 73 | 1014.7 |
| 20260506224807 | 27 | 283 | 3.2 | 6.4 | 0.00 | 0.00 | 0.00 | 73 | 1014.8 |
| 20260506223807 | 27 | 195 | 1.6 | 4.8 | 0.00 | 0.00 | 0.00 | 73 | 1014.7 |
| 20260506223304 | 27 | 0 | 1.6 | 8.0 | 0.00 | 0.00 | 0.00 | 74 | 1014.8 |
| 20260506222306 | 27 | 358 | 3.2 | 9.7 | 0.00 | 0.00 | 0.00 | 73 | 1014.8 |
| 20260506221806 | 27 | 3 | 1.6 | 8.0 | 0.00 | 0.00 | 0.00 | 71 | 1014.9 |
| 20260506221301 | 28 | 202 | 0.0 | 4.8 | 0.00 | 0.00 | 0.00 | 72 | 1015.0 |
| 20260506220806 | 28 | 68 | 1.6 | 4.8 | 0.00 | 0.00 | 0.00 | 71 | 1015.1 |
| 20260506215306 | 27 | 140 | 1.6 | 6.4 | 0.00 | 0.00 | 0.00 | 70 | 1015.1 |
| 20260506214806 | 27 | 214 | 1.6 | 4.8 | 0.00 | 0.00 | 0.00 | 74 | 1015.3 |
| 20260506214304 | 27 | 155 | 1.6 | 3.2 | 0.00 | 0.00 | 0.00 | 73 | 1015.3 |
| 20260506213806 | 27 | 104 | 0.0 | 4.8 | 0.00 | 0.00 | 0.00 | 74 | 1015.4 |
| 20260506213304 | 27 | 27 | 0.0 | 4.8 | 0.00 | 0.00 | 0.00 | 74 | 1015.4 |
| 20260506212808 | 26 | 173 | 0.0 | 4.8 | 0.00 | 0.00 | 0.00 | 74 | 1015.4 |
| 20260506211304 | 27 | 123 | 1.6 | 4.8 | 0.00 | 0.00 | 0.00 | 71 | 1015.6 |
| 20260506210804 | 27 | 162 | 0.0 | 1.6 | 0.00 | 0.00 | 0.00 | 71 | 1015.7 |
| 20260506205805 | 27 | 162 | 0.0 | 1.6 | 0.00 | 0.00 | 0.00 | 71 | 1015.7 |
| 20260506205305 | 27 | 162 | 0.0 | 3.2 | 0.00 | 0.00 | 0.00 | 73 | 1015.8 |
| 20260506204303 | 27 | 162 | 0.0 | 1.6 | 0.00 | 0.00 | 0.00 | 71 | 1015.7 |
| 20260506203806 | 27 | 162 | 0.0 | 3.2 | 0.00 | 0.00 | 0.00 | 73 | 1015.8 |
| 20260506203302 | 27 | 162 | 1.6 | 3.2 | 0.00 | 0.00 | 0.00 | 74 | 1015.7 |
| 20260506202804 | 27 | 148 | 0.0 | 1.6 | 0.00 | 0.00 | 0.00 | 73 | 1015.7 |
| 20260506202305 | 27 | 148 | 0.0 | 4.8 | 0.00 | 0.00 | 0.00 | 73 | 1015.6 |
| 20260506201803 | 27 | 147 | 0.0 | 4.8 | 0.00 | 0.00 | 0.00 | 73 | 1015.6 |
| 20260506201301 | 26 | 134 | 1.6 | 4.8 | 0.00 | 0.00 | 0.00 | 73 | 1015.7 |
| 20260506200805 | 26 | 130 | 0.0 | 4.8 | 0.00 | 0.00 | 0.00 | 76 | 1015.7 |
| 20260506200302 | 26 | 125 | 1.6 | 4.8 | 0.00 | 0.00 | 0.00 | 74 | 1015.5 |
| 20260506195803 | 26 | 148 | 1.6 | 4.8 | 0.00 | 0.00 | 0.00 | 74 | 1015.5 |
| 20260506195301 | 26 | 131 | 1.6 | 3.2 | 0.00 | 0.00 | 0.00 | 76 | 1015.4 |
| 20260506194804 | 26 | 131 | 0.0 | 3.2 | 0.00 | 0.00 | 0.00 | 76 | 1015.5 |
| 20260506194300 | 26 | 0 | 0.0 | 3.2 | 0.00 | 0.00 | 0.00 | 75 | 1015.4 |
| 20260506193300 | 26 | 99 | 0.0 | 4.8 | 0.00 | 0.00 | 0.00 | 75 | 1015.3 |
| 20260506192804 | 26 | 27 | 1.6 | 6.4 | 0.00 | 0.00 | 0.00 | 73 | 1015.4 |
| 20260506192259 | 26 | 42 | 1.6 | 9.7 | 0.00 | 0.00 | 0.00 | 73 | 1015.1 |
| 20260506191801 | 26 | 265 | 1.6 | 9.7 | 0.00 | 0.00 | 0.00 | 73 | 1015.1 |
| 20260506191301 | 26 | 16 | 1.6 | 8.0 | 0.00 | 0.00 | 0.00 | 73 | 1015.1 |
| 20260506185802 | 26 | 142 | 1.6 | 6.4 | 0.00 | 0.00 | 0.00 | 75 | 1014.9 |
| 20260506185301 | 25 | 87 | 1.6 | 6.4 | 0.00 | 0.00 | 0.00 | 76 | 1014.8 |
| 20260506184801 | 25 | 0 | 1.6 | 3.2 | 0.00 | 0.00 | 0.00 | 76 | 1014.9 |
| 20260506183803 | 25 | 0 | 0.0 | 4.8 | 0.00 | 0.00 | 0.00 | 76 | 1014.9 |
| 20260506183259 | 24 | 48 | 0.0 | 4.8 | 0.00 | 0.00 | 0.00 | 75 | 1014.9 |
| 20260506182801 | 24 | 168 | 1.6 | 4.8 | 0.00 | 0.00 | 0.00 | 75 | 1015.0 |
| 20260506182259 | 24 | 90 | 0.0 | 3.2 | 0.00 | 0.00 | 0.00 | 76 | 1014.8 |
| 20260506181758 | 23 | 34 | 0.0 | 3.2 | 0.00 | 0.00 | 0.00 | 76 | 1014.8 |
| 20260506180802 | 23 | 13 | 0.0 | 4.8 | 0.00 | 0.00 | 0.00 | 77 | 1014.9 |
| 20260506180259 | 23 | 103 | 0.0 | 3.2 | 0.00 | 0.00 | 0.00 | 76 | 1014.8 |
| 20260506175800 | 23 | 149 | 0.0 | 1.6 | 0.00 | 0.00 | 0.00 | 76 | 1014.9 |
| 20260506174801 | 23 | 140 | 0.0 | 3.2 | 0.00 | 0.00 | 0.00 | 75 | 1014.8 |
| 20260506174259 | 23 | 140 | 0.0 | 3.2 | 0.00 | 0.00 | 0.00 | 73 | 1014.8 |
| 20260506173800 | 23 | 34 | 0.0 | 1.6 | 0.00 | 0.00 | 0.00 | 75 | 1014.7 |
| 20260506172801 | 22 | 20 | 0.0 | 4.8 | 0.00 | 0.00 | 0.00 | 75 | 1014.8 |
| 20260506171758 | 22 | 351 | 0.0 | 3.2 | 0.00 | 0.00 | 0.00 | 76 | 1014.6 |
| 20260506170802 | 22 | 278 | 0.0 | 1.6 | 0.00 | 0.00 | 0.00 | 76 | 1014.5 |
| 20260506170257 | 22 | 279 | 0.0 | 1.6 | 0.00 | 0.00 | 0.00 | 76 | 1014.5 |
| 20260506165800 | 22 | 279 | 0.0 | 0.0 | 0.00 | 0.00 | 0.00 | 77 | 1014.4 |
| 20260506165258 | 22 | 279 | 0.0 | 0.0 | 0.00 | 0.00 | 0.00 | 77 | 1014.4 |
| 20260506164758 | 22 | 279 | 0.0 | 1.6 | 0.00 | 0.00 | 0.00 | 76 | 1014.3 |